EW5586 Weather Reports


time (UTC)temp
C
wind
direction
speed
KPH
gust
KPH
rain 1hr
cm
rain 24hr
cm
rain mn
cm
humidity
%
barometer
mb
20260903235330 22 232 1.6 6.4 0.00 0.00 0.00 82 1010.7
20260903234329 23 213 3.2 9.7 0.00 0.00 0.00 81 1010.7
20260903233828 23 212 1.6 9.7 0.00 0.00 0.00 82 1010.7
20260903233328 23 223 0.0 6.4 0.00 0.00 0.00 81 1010.5
20260903232828 23 213 0.0 1.6 0.00 0.00 0.00 81 1010.5
20260903232328 23 217 0.0 1.6 0.00 0.00 0.00 81 1010.5
20260903231828 23 196 0.0 1.6 0.00 0.00 0.00 80 1010.4
20260903231328 23 225 0.0 1.6 0.00 0.00 0.00 80 1010.4
20260903230828 23 219 0.0 6.4 0.00 0.00 0.00 79 1010.5
20260903225824 23 212 0.0 4.8 0.00 0.00 0.00 79 1010.5
20260903225324 23 212 1.6 8.0 0.00 0.00 0.00 79 1010.5
20260903224824 23 202 3.2 9.7 0.00 0.00 0.00 79 1010.5
20260903224324 23 187 1.6 9.7 0.00 0.00 0.00 78 1010.6
20260903223824 24 202 1.6 9.7 0.00 0.00 0.00 78 1010.7
20260903223324 24 193 1.6 9.7 0.00 0.00 0.00 78 1010.6
20260903222824 24 209 1.6 9.7 0.00 0.00 0.00 77 1010.6
20260903222324 24 198 3.2 9.7 0.00 0.00 0.00 77 1010.6
20260903221820 24 184 4.8 9.7 0.00 0.00 0.00 77 1010.7
20260903221321 24 211 4.8 9.7 0.00 0.00 0.00 77 1010.6
20260903220820 24 210 3.2 11.3 0.00 0.00 0.00 77 1010.7
20260903220320 24 205 3.2 11.3 0.00 0.00 0.00 76 1010.6
20260903215820 24 202 4.8 11.3 0.00 0.00 0.00 76 1010.7
20260903215320 24 182 4.8 11.3 0.00 0.00 0.00 76 1010.7
20260903214820 25 211 3.2 11.3 0.00 0.00 0.00 77 1010.6
20260903214320 25 161 3.2 8.0 0.00 0.00 0.00 76 1010.7
20260903213821 25 236 4.8 11.3 0.00 0.00 0.00 75 1010.7
20260903213318 25 200 6.4 14.5 0.00 0.00 0.00 74 1010.7
20260903211820 25 186 6.4 12.9 0.00 0.00 0.00 75 1010.8
20260903211319 25 181 6.4 12.9 0.00 0.00 0.00 76 1010.8
20260903210819 25 178 4.8 11.3 0.00 0.00 0.00 77 1010.8
20260903210318 25 190 6.4 12.9 0.00 0.00 0.00 76 1010.9
20260903205819 25 169 6.4 12.9 0.00 0.00 0.00 75 1010.9
20260903205320 25 183 6.4 14.5 0.00 0.00 0.00 75 1011.0
20260903204817 25 185 6.4 14.5 0.00 0.00 0.00 75 1011.0
20260903203317 25 0 1.6 12.9 0.00 0.00 0.00 74 1011.1
20260903202314 25 177 4.8 12.9 0.00 0.00 0.00 74 1011.1
20260903201812 25 202 4.8 14.5 0.00 0.00 0.00 72 1011.1
20260903201311 25 182 6.4 14.5 0.00 0.00 0.00 71 1011.2
20260903200811 26 220 6.4 14.5 0.00 0.00 0.00 71 1011.3
20260903200310 26 208 1.6 14.5 0.00 0.00 0.00 65 1011.2
20260903195811 26 187 0.0 3.2 0.00 0.00 0.00 64 1011.2
20260903195306 26 325 0.0 0.0 0.00 0.00 0.00 64 1011.3
20260903193301 26 63 1.6 12.9 0.00 0.00 0.00 59 1011.2
20260903192800 27 253 3.2 12.9 0.00 0.00 0.00 57 1011.1
20260903192259 27 117 3.2 11.3 0.00 0.00 0.00 57 1011.0
20260903191753 27 162 3.2 12.9 0.00 0.00 0.00 56 1011.1
20260903191247 28 355 4.8 22.5 0.00 0.00 0.00 58 1011.1
20260903190743 27 51 3.2 22.5 0.00 0.00 0.00 57 1011.1
20260903190245 27 192 1.6 11.3 0.00 0.00 0.00 57 1011.1
20260903185744 27 100 1.6 11.3 0.00 0.00 0.00 57 1011.1
20260903185242 27 60 3.2 14.5 0.00 0.00 0.00 58 1011.0
20260903184740 27 236 1.6 14.5 0.00 0.00 0.00 56 1011.2
20260903184240 27 18 3.2 16.1 0.00 0.00 0.00 58 1011.2
20260903183739 27 0 4.8 16.1 0.00 0.00 0.00 57 1011.2
20260903182740 27 340 4.8 12.9 0.00 0.00 0.00 59 1011.3
20260903182237 27 336 4.8 19.3 0.00 0.00 0.00 56 1011.2
20260903181738 27 146 6.4 19.3 0.00 0.00 0.00 59 1011.2
20260903181238 27 348 4.8 16.1 0.00 0.00 0.00 61 1011.1
20260903180238 27 252 3.2 12.9 0.00 0.00 0.00 58 1011.1
20260903175736 27 134 3.2 14.5 0.00 0.00 0.00 62 1011.1
20260903175234 27 329 4.8 14.5 0.00 0.00 0.00 60 1011.0
20260903173734 27 146 3.2 12.9 0.00 0.00 0.00 58 1010.9
20260903173227 27 0 1.6 9.7 0.00 0.00 0.00 62 1010.9
20260903172721 27 187 3.2 14.5 0.00 0.00 0.00 59 1010.9
20260903172216 27 140 1.6 14.5 0.00 0.00 0.00 61 1010.9
20260903171709 27 299 1.6 11.3 0.00 0.00 0.00 66 1010.9
20260903170152 27 192 3.2 16.1 0.00 0.00 0.00 63 1011.0
20260903165645 27 337 3.2 16.1 0.00 0.00 0.00 62 1011.1
20260903165140 27 0 4.8 17.7 0.00 0.00 0.00 63 1011.1
20260903164127 26 304 3.2 17.7 0.00 0.00 0.00 66 1011.1
20260903163621 26 186 1.6 12.9 0.00 0.00 0.00 68 1011.1
20260903163117 26 5 1.6 12.9 0.00 0.00 0.00 69 1011.2
20260903162609 26 355 3.2 12.9 0.00 0.00 0.00 67 1011.3
20260903162103 26 184 3.2 12.9 0.00 0.00 0.00 69 1011.2
20260903161557 26 340 1.6 9.7 0.00 0.00 0.00 67 1011.2
20260903161051 26 324 1.6 8.0 0.00 0.00 0.00 72 1011.3
20260903160545 26 5 1.6 12.9 0.00 0.00 0.00 73 1011.3
20260903160040 25 220 3.2 14.5 0.00 0.00 0.00 72 1011.3
20260903155533 25 338 4.8 17.7 0.00 0.00 0.00 70 1011.5
20260903155027 25 216 3.2 17.7 0.00 0.00 0.00 69 1011.5
20260903154521 25 300 1.6 11.3 0.00 0.00 0.00 76 1011.5
20260903153509 24 126 4.8 12.9 0.00 0.00 0.00 82 1011.6
20260903153004 23 338 6.4 12.9 0.00 0.00 0.00 84 1011.6
20260903151953 23 184 9.7 19.3 0.00 0.00 0.00 88 1011.6
20260903151445 23 190 9.7 19.3 0.00 0.00 0.00 88 1011.6
20260903150939 23 0 11.3 19.3 0.00 0.00 0.00 88 1011.6
20260903150436 23 158 11.3 19.3 0.00 0.00 0.00 88 1011.6
20260903145927 23 186 11.3 17.7 0.00 0.00 0.00 88 1011.6
20260903145421 23 180 9.7 16.1 0.00 0.00 0.00 88 1011.7
20260903144915 23 161 9.7 17.7 0.00 0.00 0.00 89 1011.8
20260903144409 23 144 9.7 17.7 0.00 0.00 0.00 88 1011.8
20260903143903 23 164 9.7 16.1 0.00 0.00 0.00 88 1011.7
20260903143358 22 153 11.3 17.7 0.00 0.00 0.00 88 1011.8
20260903142854 23 169 9.7 17.7 0.00 0.00 0.00 88 1011.7
20260903142353 23 155 6.4 14.5 0.00 0.00 0.00 88 1011.7
20260903141854 23 164 4.8 11.3 0.00 0.00 0.00 87 1011.8
20260903141353 22 166 4.8 11.3 0.00 0.00 0.00 87 1011.7
20260903140852 22 173 4.8 9.7 0.00 0.00 0.00 88 1011.7
20260903140351 22 194 3.2 9.7 0.00 0.00 0.00 89 1011.7
20260903135849 22 157 1.6 6.4 0.00 0.00 0.00 90 1011.8
20260903135349 22 205 0.0 6.4 0.00 0.00 0.00 91 1011.8
20260903134849 21 213 0.0 1.6 0.00 0.00 0.00 91 1011.8
20260903134350 21 355 0.0 1.6 0.00 0.00 0.00 92 1011.8
20260903133847 21 294 0.0 1.6 0.00 0.00 0.00 92 1011.7
20260903133345 21 226 1.6 11.3 0.00 0.00 0.00 93 1011.7
20260903132846 21 221 1.6 11.3 0.00 0.00 0.00 94 1011.8
20260903132346 21 170 1.6 8.0 0.00 0.00 0.00 94 1011.8
20260903131843 21 192 1.6 8.0 0.00 0.00 0.00 94 1011.8
20260903131343 21 216 1.6 8.0 0.00 0.00 0.00 95 1011.7
20260903130844 21 230 0.0 1.6 0.00 0.00 0.00 95 1011.8
20260903130341 21 24 0.0 6.4 0.00 0.00 0.00 95 1011.8
20260903125842 21 191 0.0 6.4 0.00 0.00 0.00 96 1011.8
20260903125337 21 218 0.0 1.6 0.00 0.00 0.00 95 1011.8
20260903124837 21 246 0.0 0.0 0.00 0.00 0.00 96 1011.7
20260903124335 21 236 0.0 0.0 0.00 0.00 0.00 96 1011.7
20260903123835 21 355 0.0 0.0 0.00 0.00 0.00 96 1011.6
20260903122833 21 207 0.0 1.6 0.00 0.00 0.00 96 1011.6
20260903122333 21 229 0.0 8.0 0.00 0.00 0.00 96 1011.6
20260903121832 21 230 0.0 8.0 0.00 0.00 0.00 96 1011.6
20260903121329 21 184 0.0 3.2 0.00 0.00 0.00 96 1011.5
20260903115829 21 210 1.6 9.7 0.00 0.00 0.00 96 1011.6
20260903115329 21 219 1.6 9.7 0.00 0.00 0.00 96 1011.6
20260903114830 20 221 0.0 8.0 0.00 0.00 0.00 96 1011.6
20260903114329 20 215 0.0 8.0 0.00 0.00 0.00 96 1011.6
20260903113325 20 178 0.0 0.0 0.00 0.00 0.00 96 1011.6
20260903112825 20 319 0.0 0.0 0.00 0.00 0.00 96 1011.6
20260903112326 -17 0.0 0.0 0.00 0.00 0.00 1011.5
20260903111825 -17 0.0 0.0 0.00 0.00 0.00 1011.5
20260903111322 -17 0.0 0.0 0.00 0.00 0.00 1011.5
20260903110809 -17 0.0 0.0 0.00 0.00 0.00 1011.5
20260903110222 -17 0.0 0.0 0.00 0.00 0.00 1011.4
20260903105209 -17 0.0 0.0 0.00 0.00 0.00 1011.3
20260903104617 -17 0.0 0.0 0.00 0.00 0.00 1011.2
20260903104117 -17 0.0 0.0 0.00 0.00 0.00 1011.1
20260903103617 -17 0.0 0.0 0.00 0.00 0.00 1011.2
20260903103117 -17 0.0 0.0 0.00 0.00 0.00 1011.2
20260903102525 -17 0.0 0.0 0.00 0.00 0.00 1011.1
20260903102020 -17 0.0 0.0 0.00 0.00 0.00 1011.1
20260903101505 -17 0.0 0.0 0.00 0.00 0.00 1011.1
20260903100924 -17 0.0 0.0 0.00 0.00 0.00 1011.1
20260903100425 -17 0.0 0.0 0.00 0.00 0.00 1011.0
20260903095330 -17 0.0 0.0 0.00 0.00 0.00 1011.0
20260903094820 -17 0.0 0.0 0.00 0.00 0.00 1011.1
20260903094258 -17 0.0 0.0 0.00 0.00 0.00 1011.0
20260903093719 -17 0.0 0.0 0.00 0.00 0.00 1011.0
20260903093217 -17 0.0 0.0 0.00 0.00 0.00 1010.9
20260903092628 -17 0.0 0.0 0.00 0.00 0.00 1010.9
20260903092123 -17 0.0 0.0 0.00 0.00 0.00 1010.7
20260903091026 -17 0.0 0.0 0.00 0.00 0.00 1010.8
20260903090503 -17 0.0 0.0 0.00 0.00 0.00 1010.8
20260903085919 -17 0.0 0.0 0.00 0.00 0.00 1010.8
20260903085327 -17 0.0 0.0 0.00 0.00 0.00 1010.8
20260903084823 -17 0.0 0.0 0.00 0.00 0.00 1010.7
20260903084320 -17 0.0 0.0 0.00 0.00 0.00 1010.7
20260903083732 -17 0.0 0.0 0.00 0.00 0.00 1010.7
20260903082721 -17 0.0 0.0 0.00 0.00 0.00 1010.7
20260903082221 -17 0.0 0.0 0.00 0.00 0.00 1010.8
20260903081623 -17 0.0 0.0 0.00 0.00 0.00 1010.9
20260903081119 -17 0.0 0.0 0.00 0.00 0.00 1010.9
20260903080529 -17 0.0 0.0 0.00 0.00 0.00 1010.9
20260903075522 -17 0.0 0.0 0.00 0.00 0.00 1010.9
20260903074419 -17 0.0 0.0 0.00 0.00 0.00 1011.0
20260903073825 -17 0.0 0.0 0.00 0.00 0.00 1010.9
20260903073325 -17 0.0 0.0 0.00 0.00 0.00 1011.0
20260903072725 -17 0.0 0.0 0.00 0.00 0.00 1011.0
20260903072223 21 0.0 0.0 0.00 0.00 0.00 95 1010.9
20260903071722 21 0 0.0 0.0 0.00 0.00 0.00 95 1011.1
20260903071123 21 0 0.0 0.0 0.00 0.00 0.00 95 1011.1
20260903070604 21 0 0.0 8.0 0.00 0.00 0.00 95 1011.2
20260903070059 21 0 0.0 8.0 0.00 0.00 0.00 96 1011.2
20260903065558 21 213 1.6 11.3 0.00 0.00 0.00 95 1011.2
20260903065052 21 205 3.2 11.3 0.00 0.00 0.00 95 1011.1
20260903064546 21 209 3.2 12.9 0.00 0.00 0.00 95 1011.1
20260903064040 21 236 3.2 12.9 0.00 0.00 0.00 95 1011.2
20260903063534 21 200 1.6 9.7 0.00 0.00 0.00 95 1011.1
20260903062522 21 228 1.6 9.7 0.00 0.00 0.00 95 1011.2
20260903062016 21 219 3.2 14.5 0.00 0.00 0.00 95 1011.0
20260903061510 21 191 3.2 16.1 0.00 0.00 0.00 95 1011.0
20260903060459 21 155 3.2 11.3 0.00 0.00 0.00 95 1011.2
20260903055952 21 227 4.8 14.5 0.00 0.00 0.00 95 1011.1
20260903054939 21 184 4.8 12.9 0.00 0.00 0.00 95 1010.9
20260903054433 21 209 4.8 14.5 0.00 0.00 0.00 95 1010.8
20260903053926 21 223 6.4 14.5 0.00 0.00 0.00 95 1010.9
20260903053421 21 204 6.4 12.9 0.00 0.00 0.00 95 1010.9
20260903052914 21 215 8.0 12.9 0.00 0.00 0.00 95 1010.9
20260903052408 21 227 6.4 12.9 0.00 0.00 0.00 96 1010.8
20260903051356 21 195 0.0 8.0 0.00 0.00 0.00 95 1010.7
20260903050850 21 213 0.0 8.0 0.00 0.00 0.00 95 1010.8
20260903050346 21 182 0.0 4.8 0.00 0.00 0.00 95 1010.7
20260903045838 21 271 0.0 11.3 0.00 0.00 0.00 95 1010.8
20260903045333 21 220 0.0 11.3 0.00 0.00 0.00 95 1010.7
20260903044320 21 153 4.8 14.5 0.00 0.00 0.00 95 1010.9
20260903043814 21 221 4.8 17.7 0.00 0.00 0.00 96 1010.8
20260903043308 21 205 6.4 17.7 0.00 0.00 0.00 96 1010.9
20260903042803 21 250 8.0 20.9 0.00 0.00 0.00 96 1010.9
20260903042256 21 223 8.0 20.9 0.00 0.00 0.00 96 1010.9
20260903041751 21 210 6.4 17.7 0.00 0.00 0.00 96 1011.0
20260903041244 21 198 6.4 19.3 0.00 0.00 0.00 96 1011.1
20260903040737 21 0 8.0 19.3 0.00 0.00 0.00 96 1011.1
20260903040239 21 188 8.0 24.1 0.00 0.00 0.00 96 1011.0
20260903035739 21 186 9.7 24.1 0.00 0.00 0.00 96 1010.9
20260903035236 21 205 9.7 24.1 0.00 0.00 0.00 96 1010.8
20260903034736 21 258 8.0 24.1 0.00 0.00 0.00 96 1010.8
20260903033735 21 212 8.0 19.3 0.00 0.00 0.00 96 1010.9
20260903033234 21 201 6.4 19.3 0.00 0.00 0.00 96 1010.9
20260903032736 21 182 6.4 14.5 0.00 0.00 0.00 95 1010.9
20260903032234 21 162 6.4 14.5 0.00 0.00 0.00 95 1010.9
20260903031734 21 207 4.8 12.9 0.00 0.00 0.00 95 1011.0
20260903031234 22 156 4.8 14.5 0.00 0.00 0.00 96 1010.9
20260903030234 22 198 0.0 6.4 0.00 0.00 0.00 95 1011.0
20260903025735 22 205 0.0 4.8 0.00 0.00 0.00 95 1011.0
20260903025234 22 247 1.6 11.3 0.00 0.00 0.00 95 1010.9
20260903024733 22 230 1.6 11.3 0.00 0.00 0.00 95 1010.8
20260903024230 22 230 1.6 9.7 0.00 0.00 0.00 95 1010.8
20260903022212 21 350 0.0 0.0 0.00 0.00 0.00 95 1011.1
20260903020654 21 350 0.0 9.7 0.00 0.00 0.00 94 1010.8
20260903020149 21 350 1.6 9.7 0.00 0.00 0.00 94 1010.9
20260903015137 22 153 4.8 17.7 0.00 0.00 0.00 94 1010.9
20260903014630 22 170 4.8 17.7 0.00 0.00 0.00 93 1010.7
20260903014130 22 217 4.8 17.7 0.00 0.00 0.00 93 1010.7
20260903013631 22 182 0.0 9.7 0.00 0.00 0.00 92 1010.4
20260903013131 22 171 1.6 8.0 0.00 0.00 0.00 92 1010.4
20260903012630 22 169 6.4 14.5 0.00 0.00 0.00 92 1010.2
20260903011128 22 192 14.5 29.0 0.00 0.00 0.00 90 1009.9
20260903010628 22 153 14.5 24.1 0.00 0.00 0.00 90 1010.2
20260903005628 22 171 16.1 25.7 0.00 0.00 0.00 90 1010.5
20260903005127 23 169 16.1 25.7 0.00 0.00 0.00 90 1010.6
20260903004627 23 141 14.5 25.7 0.00 0.00 0.00 90 1010.6
20260903004125 23 169 11.3 19.3 0.00 0.00 0.00 90 1010.8
20260903003625 23 162 11.3 17.7 0.00 0.00 0.00 90 1010.9
20260903003125 23 159 14.5 24.1 0.00 0.00 0.00 90 1010.8
20260903002622 23 152 16.1 24.1 0.00 0.00 0.00 89 1010.7
20260903002123 23 165 17.7 25.7 0.00 0.00 0.00 89 1010.7
20260903001622 23 161 17.7 27.4 0.00 0.00 0.00 89 1010.8
20260903001123 23 169 17.7 27.4 0.00 0.00 0.00 89 1010.7
20260903000623 23 161 19.3 30.6 0.00 0.00 0.00 89 1010.6
20260903000122 23 142 20.9 30.6 0.00 0.00 0.00 89 1010.4